Zurück zum Katalog

STARLINK-3811

AktivKommunikationVLEO
NORAD 52383·PAYLOAD·🇺🇸 United States

Gestartet Apr 29, 2022 von Cape Canaveral Space Force Station

Loading…

Nächste Überflüge (nächste 24 Stunden)

TLE

AktuellSource: CelesTrak SupGP

Epoche: Sep 15, 2026, 03:03 UTC

1 52383C 22045BE  26258.12756944 -.00007647  00000+0 -23206-3 0  2584
2 52383  53.1586  34.9272 0001128  89.0748 160.1053 15.33551504    15

Verfolge STARLINK-3811 in Echtzeit mit AllMySat

Download on the App Store